Weather Roundup
Issued by NWS

Home | Current Version | Previous Version | Text Only | Print | Product List | Glossary On
Versions: 1 2 3 4 5 6 7 8 9 10 11 12 13 14 15 16 17 18 19 20 21 22 23 24 25 26 27 28 29 30 31 32 33 34 35 36 37 38 39 40 41 42 43 44 45 46 47 48 49 50
000
NZUS93 KARX 011159
HRRWXR

CURRENT HOURLY OBSERVATIONS ACROSS
MUCH OF THE UPPER MISSISSIPPI VALLEY
NATIONAL WEATHER SERVICE LA CROSSE WI
600 AM CST SUN FEB 01 2015


...SOUTHEAST MINNESOTA...


CITY           SKY/WX    TMP DP  RH WIND       PRES   REMARKS
ROCHESTER      LGT SNOW  17  13  84 NE22G29   30.04S VSB 1   WCI   0
ROCHESTER/MAYO CLOUDY    17  13  83 NE10G17   30.07S WCI   5
WINONA         LGT SNOW  19  18  93 NE9       30.14S WCI   9
AUSTIN         LGT SNOW  18  16  93 NE23      29.99F WCI   0
ALBERT LEA     LGT SNOW  18  16  93 NE20G25   30.00F VSB 1   WCI   1
DODGE CENTER   LGT SNOW  16  14  93 NE17G23   30.04S WCI   0
PRESTON          N/A     17  14  88 NE18G25   30.02S WCI   1
OWATONNA       CLOUDY    16  10  79 NE21G28   30.06F WCI  -2
FARIBAULT      LGT SNOW  16  10  79 N16       30.10F WCI   0
$$

...ELSEWHERE IN MINNESOTA...


CITY           SKY/WX    TMP DP  RH WIND       PRES   REMARKS
MINNEAPOLIS    LGT SNOW  14   8  77 NE18G25   30.18S WCI  -3
INTNL FALLS    MOCLDY   -26 -30  81 CALM      30.47S FOG
DULUTH         PTCLDY    -1  -9  68 N10       30.29S WCI -17
RED WING       LGT SNOW  16   9  73 E14       30.15F WCI   1
REDWOOD FALLS  LGT SNOW  14   9  80 N10G24    30.17R WCI   1
MANKATO        CLOUDY    16  10  79 NE20G26   30.09S WCI  -1
WORTHINGTON    CLOUDY    27   9  46 N24G31    30.05R WCI  12
FAIRMONT       CLOUDY    18  12  79 N17       30.03R WCI   2
$$

...SOUTHWEST WISCONSIN...


CITY           SKY/WX    TMP DP  RH WIND       PRES   REMARKS
LA CROSSE      LGT SNOW  17  12  80 NE13G21   30.12F WCI   4
PRAIRIE DU CHI LGT SNOW  21  16  80 NE15G25   30.03R WCI   8
BOSCOBEL       LGT SNOW  18  13  80 NE12G22   30.06S VSB 1   WCI   5
LONE ROCK      LGT SNOW  18  13  80 NE12G23   30.08F VSB 1   WCI   5
PLATTEVILLE    CLOUDY    21  18  90 NE26G35   29.96F WCI   3
FORT MC COY    LGT SNOW  14   9  81 NE13G20   30.15S WCI   0
CAMP DOUGLAS   LGT SNOW  12  12 100 NE12G21   30.14F FOG     WCI  -2
VIROQUA        CLOUDY    15  12  88 NE17G25   30.04F WCI  -2
WIS DELLS      NOT AVBL
$$

...ELSEWHERE IN WISCONSIN...


CITY           SKY/WX    TMP DP  RH WIND       PRES   REMARKS
MILWAUKEE      LGT SNOW  25  21  85 NE23G30   30.09F VSB 3/4 WCI  10
MADISON        LGT SNOW  16  12  84 NE16      30.07F FOG     WCI   1
GREEN BAY      CLOUDY    14   6  70 NE26G35   30.23F WCI  -6
EAU CLAIRE     NOT AVBL
BLACK RVR FLS  LGT SNOW  15   9  78 E9G22     30.16S WCI   3
MEDFORD        CLOUDY     8   1  71 NE16      30.17F WCI  -9
WAUSAU         CLOUDY    10   2  69 NE12G17   30.18F WCI  -5
WIS RAPIDS     LGT SNOW  12   5  73 E14G20    30.18F WCI  -3
MARSHFIELD     LGT SNOW  11   6  81 NE14      30.15F WCI  -5
RICE LAKE      CLOUDY    11   1  64 NE17      30.23S WCI  -6
$$

...NORTHEAST IOWA...


CITY           SKY/WX    TMP DP  RH WIND       PRES   REMARKS
DECORAH        LGT SNOW  19  16  86 E21G31    29.98F WCI   3
MASON CITY     LGT SNOW  20  17  88 NE28G35   29.96S FOG     WCI   2
CHARLES CITY   LGT SNOW  25  25 100 NE22G29   29.94S WCI  10
OELWEIN        LGT SNOW  25  23  93 E25G33    29.90S WCI   9
$$

...ELSEWHERE IN IOWA...


CITY           SKY/WX    TMP DP  RH WIND       PRES   REMARKS
DES MOINES     LGT SNOW  33  31  92 E8        29.79F FOG     WCI  26
IOWA CITY      LGT SNOW  33  32  96 E10       29.86F VSB 1   WCI  25
FORT DODGE     CLOUDY    25  21  86 CALM      29.90R
$$

...NORTHERN ILLINOIS...


CITY           SKY/WX    TMP DP  RH WIND       PRES   REMARKS
CHICAGO-OHARE  SNOW      30  29  96 E10       30.00F VSB 1/2 WCI  21
CHICAGO-MIDWAY LGT SNOW  33  31  92 E10       30.00F VSB 3/4 WCI  25
MOLINE         LGT SNOW  32  31  96 E13       29.85F VSB 3/4 WCI  22
ROCKFORD       LGT SNOW  29  25  85 NE18      29.98F VSB 1   WCI  16
PEORIA         LGT SNOW  34  32  92 E9G18     29.86F VSB 3/4 WCI  27
$$

NOTE: "FAIR" INDICATES FEW OR NO CLOUDS BELOW 12,000 FEET WITH NO
SIGNIFICANT WEATHER AND/OR OBSTRUCTIONS TO VISIBILITY. WIND
SPEEDS ARE IN MILES-PER-HOUR.



USA.gov is the U.S. government's official web portal to all federal, state and local government web resources and services.